Location: *
(51.4660°N, 0.3360°W)
Time: 20:20:11
(UTC+00:00)

SPOT 5 - Pass Details

Date: 19 September 2019
Orbit: 624 x 814 km, 98.3° (Epoch: 16 October)

Event Time Altitude Azimuth Distance (km) Brightness Sun altitude
Exits shadow 21:58:12 44° 312° (NW) 1,011 3.9 -31.7°
Drops below altitude 10° 22:01:52 10° 339° (NNW) 2,283 6.3 -32.0°
Sets 22:04:17 0° 343° (NNW) 3,242 7.3 -32.2°
